Location: Krasnoyarskiy Pitomnik
(51.1333°N, 71.6167°E)
Time: 10:12:37
(UTC+00:00)

NOSS 2-2 (C) - Pass Details

Date: 22 October 2021
Orbit: 450 x 1755 km, 63.3° (Epoch: 01 December)

Event Time Altitude Azimuth Distance (km) Brightness Sun altitude
Exits shadow 23:12:06 66° 275° (W) 945 4.1 -25.3°
Maximum altitude 23:12:44 73° 229° (SW) 933 4.2 -25.2°
Drops below altitude 10° 23:19:48 10° 146° (SSE) 3,059 7.3 -24.2°
Sets 23:23:00 0° 145° (SE) 4,235 8.1 -23.7°
